Regional Weather Roundup
Issued by NWS

Home | Current Version | Previous Version | Text Only | Print | Product List | Glossary On
Versions: 1 2 3 4 5 6 7 8 9 10 11 12 13 14 15 16 17 18 19 20 21 22 23 24 25 26 27 28 29 30 31 32 33 34 35 36 37 38 39 40 41 42 43 44 45 46 47 48 49 50
617
ASUS43 KMKX 171801
RWRWI

WISCONSIN REGIONAL WEATHER ROUNDUP
NATIONAL WEATHER SERVICE MILWAUKEE/SULLIVAN WI
100 PM CDT SAT AUG 17 2019

NOTE: "FAIR" INDICATES FEW OR NO CLOUDS BELOW 12,000 FEET WITH NO
SIGNIFICANT WEATHER AND/OR OBSTRUCTIONS TO VISIBILITY.

WIZ001-002-006>008-014>016-023>028-171900-
NORTHWEST WISCONSIN

CITY           SKY/WX    TMP DP  RH WIND       PRES   REMARKS
SUPERIOR ARPT  FAIR      81  60  48 SW13G22   29.80F HX  82
6HR MIN TEMP:  57; 6HR MAX TEMP:  82;

ASHLAND        FAIR      82  59  45 SW13G21   29.84F HX  82
6HR MIN TEMP:  57; 6HR MAX TEMP:  82;

HAYWARD        FAIR      80  58  46 S16G22    29.86F HX  80
6HR MIN TEMP:  53; 6HR MAX TEMP:  80;

SIREN          FAIR      81  55  41 SW13G20   29.85S HX  81
CUMBERLAND     FAIR      77  59  53 SW9       29.87F
RICE LAKE      FAIR      79  60  51 S10       29.88F HX  80
6HR MIN TEMP:  57; 6HR MAX TEMP:  79;

CHETEK         FAIR      78  63  58 S9        29.87F HX  80
LADYSMITH      PTSUNNY   78  62  57 SW13      29.90S
6HR MIN TEMP:  57; 6HR MAX TEMP:  79;

EAU CLAIRE     NOT AVBL
MENOMONIE      FAIR      75  60  58 S8        29.86F
6HR MIN TEMP:  58; 6HR MAX TEMP:  76;

NEW RICHMOND   FAIR      78  57  49 SW6       29.86F
OSCEOLA        FAIR      78  60  54 S10       29.88F
$$

WIZ003>005-009-010-017-018-171900-
NORTH CENTRAL WISCONSIN

CITY           SKY/WX    TMP DP  RH WIND       PRES   REMARKS
MANITOWISH WTR FAIR      76  59  55 SW5       29.88F
6HR MIN TEMP:  50; 6HR MAX TEMP:  77;

ARBOR VITAE    FAIR      77  62  59 W5        29.88F
WOODRUFF       FAIR      77  62  59 W5        29.88F
RHINELANDER    FAIR      78  59  51 SW7       29.89F
6HR MIN TEMP:  57; 6HR MAX TEMP:  78;

EAGLE RIVER    FAIR      76  57  52 W6        29.89F
LAND O LAKES   FAIR      79  56  45 SW5       29.90F HX  80
6HR MIN TEMP:  49; 6HR MAX TEMP:  79;

PHILLIPS       FAIR      75  61  61 SW5       29.88S
6HR MIN TEMP:  57; 6HR MAX TEMP:  77;

TOMAHAWK       FAIR      77  60  55 CALM      29.89F
MEDFORD        PTSUNNY   74  61  63 SW3       29.89F
MERRILL        FAIR      77  61  58 SW6       29.89F
6HR MIN TEMP:  54; 6HR MAX TEMP:  78;

$$

WIZ029-030-035-036-043>047-171900-
CENTRAL WISCONSIN

CITY           SKY/WX    TMP DP  RH WIND       PRES   REMARKS
WAUSAU         FAIR      77  61  57 VRB6      29.88F
6HR MIN TEMP:  59; 6HR MAX TEMP:  77;

MOSINEE        MOSUNNY   77  63  61 SW6       29.91F
MARSHFIELD     PTSUNNY   78  62  57 SW8       29.91R HX  80
6HR MIN TEMP:  59; 6HR MAX TEMP:  79;

STEVENS POINT  PTSUNNY   76  59  55 S8        29.91R
6HR MIN TEMP:  58; 6HR MAX TEMP:  76;

WAUPACA        FAIR      80  61  52 CALM      29.90S HX  81
6HR MIN TEMP:  61; 6HR MAX TEMP:  81;

WAUTOMA        PTSUNNY   77  64  64 VRB6      29.90F
6HR MIN TEMP:  59; 6HR MAX TEMP:  77;

WISC RAPIDS    FAIR      78  62  57 S3        29.90S HX  80
6HR MIN TEMP:  61; 6HR MAX TEMP:  78;

CAMP DOUGLAS   FAIR      78  60  53 S6        29.90R HX  80
6HR MIN TEMP:  59; 6HR MAX TEMP:  78;

$$

WIZ011>013-019>022-031-037>040-048>050-171900-
NORTHEAST WISCONSIN

CITY           SKY/WX    TMP DP  RH WIND       PRES   REMARKS
ANTIGO         FAIR      75  58  55 CALM      29.90F
6HR MIN TEMP:  55; 6HR MAX TEMP:  76;

SHAWANO        FAIR      80  60  51 CALM      29.88F HX  80
6HR MIN TEMP:  61; 6HR MAX TEMP:  80;

OCONTO         FAIR      76  65  70 SE6       29.87F
6HR MIN TEMP:  58; 6HR MAX TEMP:  76;

STURGEON BAY   FAIR      76  62  62 SW7       29.90S
6HR MIN TEMP:  62; 6HR MAX TEMP:  76;

GREEN BAY      FAIR      79  64  60 W5        29.89F HX  81
6HR MIN TEMP:  62; 6HR MAX TEMP:  79;

MANITOWOC      FAIR      75  66  73 SE7       29.91R
6HR MIN TEMP:  64; 6HR MAX TEMP:  78;

APPLETON       PTSUNNY   75  57  53 CALM      29.89F
CLINTONVILLE   FAIR      78  58  49 S3        29.89S
6HR MIN TEMP:  60; 6HR MAX TEMP:  79;

OSHKOSH        FAIR      76  62  62 W5        29.89S
6HR MIN TEMP:  64; 6HR MAX TEMP:  77;

$$

WIZ032>034-041-042-053>061-171900-
SOUTHWEST WISCONSIN

CITY           SKY/WX    TMP DP  RH WIND       PRES   REMARKS
LA CROSSE      FAIR      80  60  50 SE5       29.85F HX  81
6HR MIN TEMP:  65; 6HR MAX TEMP:  81;

SPARTA         FAIR      76  60  57 CALM      29.90S
VIROQUA        FAIR      78  65  63 E7        29.89F HX  80
6HR MIN TEMP:  58; 6HR MAX TEMP:  78;

BOSCOBEL       FAIR      80  63  55 E5        29.87F HX  81
6HR MIN TEMP:  60; 6HR MAX TEMP:  80;

PRAIRIE DU CHI FAIR      75  61  60 E5        29.86F
PLATTEVILLE    FAIR      77  67  70 E5        29.89S
6HR MIN TEMP:  56; 6HR MAX TEMP:  77;

$$

WIZ056-057-062-063-064-067-068-171900-
SOUTH CENTRAL WISCONSIN

CITY           SKY/WX    TMP DP  RH WIND       PRES   REMARKS
REEDSBURG      FAIR      77  61  56 CALM      29.89S
6HR MIN TEMP:  58; 6HR MAX TEMP:  78;

BARABOO/DELLS  FAIR      77  61  56 E3        29.89F
6HR MIN TEMP:  59; 6HR MAX TEMP:  78;

LONE ROCK      NOT AVBL
MINERAL POINT  FAIR      79  64  61 E3        29.90F HX  81
MADISON        PTSUNNY   77  60  55 SE3       29.88F
6HR MIN TEMP:  61; 6HR MAX TEMP:  80;

MIDDLETON      FAIR     N/A N/A N/A E6        29.90F
WATERTOWN      FAIR      77  60  55 S5        29.90F
MONROE         FAIR      78  62  56 E3        29.89F HX  80
JANESVILLE     MOSUNNY   81  63  54 CALM      29.89F HX  82
$$

WIZ051-052-058>065-066-070>072-171900-
SOUTHEAST WISCONSIN

CITY           SKY/WX    TMP DP  RH WIND       PRES   REMARKS
MILWAUKEE      FAIR      80  62  54 SE13      29.91S HX  81
6HR MIN TEMP:  67; 6HR MAX TEMP:  82;

WAUKESHA       SUNNY     77  57  50 SW3       29.92F
MILWAUKEE/TIMM SUNNY     79  54  41 SW5       29.91F
RACINE         FAIR      80  65  59 SE13G21   29.93S HX  82
6HR MIN TEMP:  65; 6HR MAX TEMP:  80;

KENOSHA        PTSUNNY   80  65  59 SE12      29.91F HX  82
6HR MIN TEMP:  63; 6HR MAX TEMP:  82;

FOND DU LAC    FAIR      79  62  56 SW5       29.90S HX  80
6HR MIN TEMP:  64; 6HR MAX TEMP:  79;

SHEBOYGAN      FAIR      78  62  57 S7        29.90S HX  80
6HR MIN TEMP:  63; 6HR MAX TEMP:  79;

WEST BEND      FAIR      77  57  50 CALM      29.91S
JUNEAU         FAIR      76  61  60 CALM      29.92S
6HR MIN TEMP:  58; 6HR MAX TEMP:  76;

$$

LSZ147-162-171900-
LAKE SUPERIOR

STATION/POSITION TIME  TEMP    WIND        PRES    WAVE
                       AIR SEA DIR/SP/G            HT/PER
                 (UTC) (F)     (DEG/KT/KT) (MB)    (FT/S)
W MID LAKE BUOY  1650   66 66   CALM  /  2 1009.6F   1
DEVILS ISLAND    1700   71     110/  3/  4 1009.9S
SAXON HARBOR     1730   81     170/  4/ 13 1009.8F
$$

LMZ867-665-643>646-171900-
LAKE MICHIGAN

STATION/POSITION TIME  TEMP    WIND        PRES    WAVE
                       AIR SEA DIR/SP/G            HT/PER
                 (UTC) (F)     (DEG/KT/KT) (MB)    (FT/S)
S GREEN BAY BUOY 1700   74 70  190/  8/  8 1012.6F
N MID LAKE BUOY  1740   67 71  220/  4/  6 1012.6S
NORTHPORT PIER   1740   70     120/  4/  5 1012.2R
KEWAUNEE LAKESHO 1730   73     170/  7/  9 1011.9S
SHEBOYGAN LAKESH 1700   71     150/  8/  8 1012.3F
PORT WASHINGTON  1740   75     180/  4/  8 1013.5S
S MID LAKE BUOY  1740   73 73  170/  6/  8 1013.7R
KENOSHA   LAKESH 1700   75     140/  9/ 11 1012.9
$$

TC  - TEMPERATURE IN CELSIUS
VSB - VISIBILITY IN STATUTE MILES
WCI - WIND CHILL INDEX
HX  - HEAT INDEX





USA.gov is the U.S. government's official web portal to all federal, state and local government web resources and services.